Hourly Data Report for July 26, 2021

KUGLUKTUK A
NUNAVUT
Current Station Operator: NAVCAN

67°49'00.000" N
115°08'38.000" W
22.60 m
2300903
71938
YCO

Download Data

Hourly Data (July 2021)
Hourly Data Report for July 26, 2021
TIME
LST
Temp Definition
°C
Dew Point Definition
°C
Rel Hum Definition
%
Precip. Amount Definition
mm

Wind Dir Definition
10's deg

Wind Spd Definition
km/h
Visibility Definition
km
Stn Press Definition
kPa
Hmdx Definition


Wind Chill Definition


Weather Definition


00:00 7.5 6.1 91   14 12 16.1 100.29     Rain
01:00 7.3 6.1 92   20 8 19.3 100.27     Rain
02:00 6.8 6.0 95   29 8 24.1 100.28     Rain
03:00 7.2 6.2 93   29 6 24.1 100.27     Rain
04:00 7.8 6.8 93   2 12 24.1 100.26     Rain
05:00 7.4 5.8 89   36 22 24.1 100.26     Rain
06:00 6.6 4.1 84   36 29 24.1 100.28     LegendNANA
07:00 6.6 4.8 88   36 25 24.1 100.28     Rain
08:00 7.2 5.2 87   36 19 24.1 100.28     Cloudy
09:00 7.0 4.4 84   36 18 19.3 100.30     Rain
10:00 7.7 4.6 81   34 21 24.1 100.30     Rain
11:00 7.6 5.1 84   30 16 16.1 100.30     Rain
12:00 7.9 5.6 85   31 16 16.1 100.30     Rain
13:00 8.7 5.6 81   32 18 19.3 100.32     Rain
14:00 10.4 5.0 69   33 18 24.1 100.31     Cloudy
15:00 9.8 4.8 71   34 35 24.1 100.34     LegendNANA
16:00 9.5 4.8 73   35 36 24.1 100.40     LegendNANA
17:00 9.1 4.0 70   34 28 24.1 100.42     Cloudy
18:00 8.4 4.9 78   36 25 24.1 100.46     Rain Showers
19:00 8.7 4.1 73   34 31 24.1 100.48     LegendNANA
20:00 8.4 3.9 73   34 26 24.1 100.52     Mostly Cloudy
21:00 8.0 3.3 72   33 29 24.1 100.55     LegendNANA
22:00 7.0 3.0 76   30 19 24.1 100.57     LegendNANA
23:00 5.5 3.0 84   27 16 24.1 100.60     Cloudy

Notes on Data Quality.

Legend

  • E = Estimated
  • M = Missing
  • NA = Not Available*
  • [empty] = Indicates an unobserved value
Date modified: